Home > Weather > Chatham-Kent > Past weeks

Flag for Canada Past Weather in Chatham-Kent, Ontario, Canada — Yesterday and Last 2 Weeks

Now
86 °F

Scattered clouds.


Feels Like: 86 °F
Forecast: 72 / 84 °F
Wind: 2 mph from North

Location: Windsor Weather Station

Current Time: Jul 23, 2016 at 11:21:17 AM

Latest Report: Jul 23, 2016 at 11:00 AM


Visibility: 15 mi

Pressure: 29.96 "Hg

Humidity: 43%

Dew Point: 61 °F

Location of Chatham-KentLocation

Past Weather in Chatham-Kent — Graph

°F

Chatham-Kent Temperature Yesterday

Maximum temperature yesterday: 93 °F (at 3:00 PM)
Minimum temperature yesterday: 73 °F (at 12:00 AM)
Average temperature yesterday: 83 °F

High & Low Weather Summary for the Past Weeks

 TemperatureHumidityPressure
High93 °F (Jul 22, 3:00 PM)100% (Jul 17, 3:00 AM)30.28 "Hg (Jul 17, 3:00 AM)
Low59 °F (Jul 20, 4:00 AM)41% (Jul 22, 2:00 PM)29.70 "Hg (Jul 8, 6:00 PM)
Average75 °F71%29.99 "Hg
* Reported Jul 8 10:00 AM — Jul 23 10:00 AM, Chatham-Kent, Weather by CustomWeather, © 2016

Note: Actual official high and low records may vary slightly from our data, if they occured in-between our weather recording intervals... More about our weather records

Advertising

Chatham-Kent Weather History for the Previous 24 Hours

Scroll right to see more
 ConditionsComfort  
Time TempWeatherWind HumidityBarometerVisibility
10:00 AM
Sat, Jul 23
82 °FPartly sunny.5 mph58%29.98 "Hg15 mi
9:00 AM79 °FPartly sunny.2 mph74%29.97 "Hg15 mi
8:00 AM75 °FPartly sunny.3 mph83%29.97 "Hg15 mi
7:00 AM73 °FPassing clouds.6 mph89%29.96 "Hg15 mi
6:00 AM70 °FPassing clouds.6 mph94%29.96 "Hg15 mi
5:00 AM72 °FClear.7 mph94%29.95 "Hg15 mi
4:00 AM75 °FClear.7 mph83%29.95 "Hg15 mi
3:00 AM77 °FClear.7 mph79%29.95 "Hg15 mi
2:00 AM77 °FClear.7 mph79%29.95 "Hg15 mi
1:00 AM77 °FClear.7 mph79%29.94 "Hg15 mi
12:00 AM81 °FClear.8 mph70%29.93 "Hg15 mi
11:00 PM
Fri, Jul 22
82 °FClear.9 mph66%29.93 "Hg15 mi
10:00 PM86 °FClear.9 mph59%29.92 "Hg15 mi
9:00 PM84 °FPassing clouds.7 mph62%29.90 "Hg15 mi
8:00 PM90 °FPassing clouds.13 mph52%29.90 "Hg15 mi
7:00 PM91 °FPassing clouds.13 mph49%29.90 "Hg15 mi
6:00 PM93 °FPassing clouds.14 mph49%29.90 "Hg15 mi
5:00 PM93 °FPassing clouds.15 mph47%29.92 "Hg15 mi
4:00 PM93 °FPassing clouds.16 mph47%29.93 "Hg15 mi
3:00 PM93 °FPassing clouds.13 mph44%29.95 "Hg15 mi
2:00 PM91 °FScattered clouds.2 mph41%29.96 "Hg15 mi
1:00 PM90 °FPartly sunny.5 mph52%29.96 "Hg15 mi
12:00 PM88 °FScattered clouds.6 mph55%29.95 "Hg15 mi
11:00 AM86 °FPartly sunny.6 mph66%29.95 "Hg15 mi
Weather by CustomWeather, © 2016

See weather overviewHow to use our weather pages